EW5042 Weather Reports


time (UTC)temp
F
wind
direction
speed
knots
gust
knots
rain 1hr
in
rain 24hr
in
rain mn
in
humidity
%
barometer
mb
20260507153006 68 28 2.6 17.4 0.00 0.00 0.00 64 1008.4
20260507151504 69 171 4.3 17.4 0.00 0.00 0.00 62 1008.4
20260507150003 69 340 4.3 13.0 0.00 0.00 0.00 61 1008.7
20260507144509 69 173 6.1 16.5 0.00 0.00 0.00 60 1008.5
20260507143003 70 288 6.1 16.5 0.00 0.00 0.00 58 1008.4
20260507141600 70 355 4.3 14.8 0.00 0.00 0.00 57 1008.4
20260507140104 71 260 6.1 16.5 0.00 0.00 0.00 55 1008.6
20260507134559 71 158 2.6 14.8 0.00 0.00 0.00 54 1009.1
20260507133057 72 272 4.3 15.6 0.00 0.00 0.00 53 1009.3
20260507131602 73 219 4.3 15.6 0.00 0.00 0.00 50 1009.3
20260507130108 73 261 4.3 16.5 0.00 0.00 0.00 49 1009.3
20260507124555 74 184 6.1 16.5 0.00 0.00 0.00 46 1009.4
20260507123052 73 276 5.2 13.9 0.00 0.00 0.00 45 1009.8
20260507121602 75 222 6.1 15.6 0.00 0.00 0.00 41 1009.8
20260507120050 74 290 5.2 16.5 0.00 0.00 0.00 40 1009.7
20260507114604 76 238 8.7 22.6 0.00 0.00 0.00 35 1009.8
20260507113051 76 344 6.1 13.9 0.00 0.00 0.00 36 1009.6
20260507111549 76 187 3.5 12.2 0.00 0.00 0.00 36 1009.9
20260507110049 76 236 3.5 11.3 0.00 0.00 0.00 35 1010.0
20260507104546 76 256 2.6 13.0 0.00 0.00 0.00 35 1009.8
20260507103045 75 261 3.5 13.0 0.00 0.00 0.00 35 1009.9
20260507101543 76 242 1.7 12.2 0.00 0.00 0.00 35 1010.3
20260507100041 75 306 2.6 13.0 0.00 0.00 0.00 35 1010.5
20260507094540 75 209 3.5 15.6 0.00 0.00 0.00 36 1010.5
20260507093037 75 319 3.5 13.9 0.00 0.00 0.00 35 1010.6
20260507091533 73 341 2.6 12.2 0.00 0.00 0.00 40 1010.6
20260507090036 74 130 3.5 10.4 0.00 0.00 0.00 41 1010.6
20260507084529 72 230 1.7 9.6 0.00 0.00 0.00 43 1010.7
20260507083028 72 280 1.7 9.6 0.00 0.00 0.00 44 1010.8
20260507081539 71 187 0.9 7.8 0.00 0.00 0.00 46 1010.9
20260507080022 71 183 3.5 8.7 0.00 0.00 0.00 43 1011.1
20260507074532 69 325 0.9 8.7 0.00 0.00 0.00 47 1011.3
20260507073014 68 282 0.9 7.8 0.00 0.00 0.00 51 1011.5
20260507071509 66 290 0.9 7.0 0.00 0.00 0.00 59 1011.7
20260507070010 64 226 0.0 4.3 0.00 0.00 0.00 64 1011.7
20260507064506 64 286 0.0 0.0 0.00 0.00 0.00 67 1011.9
20260507063003 63 284 0.0 0.0 0.00 0.00 0.00 69 1012.2
20260507061503 63 284 0.0 0.0 0.00 0.00 0.00 70 1012.2
20260507060001 63 224 0.0 5.2 0.00 0.00 0.00 71 1012.2
20260507054501 62 255 0.9 7.0 0.00 0.00 0.00 73 1012.2
20260507053001 61 265 2.6 10.4 0.00 0.00 0.00 79 1012.1
20260507051558 61 198 0.9 4.3 0.00 0.00 0.00 80 1012.2
20260507050056 61 279 0.0 2.6 0.00 0.00 0.00 82 1012.2
20260507044559 61 262 0.0 6.1 0.00 0.00 0.00 82 1012.2
20260507043050 61 255 0.0 6.1 0.00 0.00 0.00 81 1012.5
20260507041559 63 158 0.0 7.0 0.00 0.00 0.00 77 1012.3
20260507040048 63 259 0.9 6.1 0.00 0.00 0.00 68 1012.5
20260507034556 62 223 0.0 4.3 0.00 0.00 0.00 63 1012.3
20260507033052 62 49 0.0 0.0 0.00 0.00 0.00 67 1012.2
20260507031602 63 49 0.0 0.0 0.00 0.00 0.00 65 1012.3
20260507030053 63 48 0.0 2.6 0.00 0.00 0.00 63 1012.4
20260507024547 63 140 0.0 7.0 0.00 0.00 0.00 65 1012.3
20260507023047 63 134 2.6 5.2 0.00 0.00 0.00 68 1012.0
20260507021543 63 262 0.9 7.0 0.00 0.00 0.00 69 1012.4
20260507020047 61 148 0.0 11.3 0.00 0.00 0.00 77 1012.5
20260507014549 62 251 0.0 5.2 0.00 0.00 0.00 82 1012.3
20260507013044 61 240 0.9 7.0 0.00 0.00 0.00 82 1012.5
20260507011542 62 65 0.9 6.1 0.00 0.00 0.00 83 1012.8
20260507010042 62 111 0.0 6.1 0.00 0.00 0.00 82 1012.8
20260507004537 62 286 0.9 7.8 0.00 0.00 0.00 81 1012.7
20260507003038 62 219 2.6 6.1 0.00 0.00 0.00 81 1012.7
20260507001537 62 252 0.9 8.7 0.00 0.00 0.00 80 1013.1
20260507000039 62 5 0.0 5.2 0.00 0.00 0.00 79 1013.0
20260506234534 62 335 2.6 12.2 0.00 0.00 0.00 79 1012.9
20260506233035 62 231 2.6 9.6 0.00 0.00 0.00 79 1012.8
20260506231529 63 215 0.0 4.3 0.00 0.00 0.00 76 1012.8
20260506230027 63 308 0.9 7.8 0.00 0.00 0.00 71 1012.8
20260506224524 64 298 1.7 9.6 0.00 0.00 0.00 66 1012.7
20260506223022 64 314 2.6 10.4 0.00 0.00 0.00 61 1012.3
20260506221521 64 195 1.7 8.7 0.00 0.00 0.00 61 1012.6
20260506220022 64 292 2.6 9.6 0.00 0.00 0.00 60 1012.5
20260506214517 64 297 0.9 6.1 0.00 0.00 0.00 62 1012.4
20260506213016 63 288 0.9 7.0 0.00 0.00 0.00 63 1012.2
20260506211517 61 329 0.0 3.5 0.00 0.00 0.00 72 1011.9
20260506210012 61 33 0.0 3.5 0.00 0.00 0.00 82 1012.1
20260506204512 61 318 0.0 9.6 0.00 0.00 0.00 84 1012.5
20260506203011 61 273 1.7 11.3 0.00 0.00 0.00 85 1013.0
20260506201511 61 181 1.7 7.8 0.00 0.00 0.00 86 1013.3
20260506200009 61 141 1.7 8.7 0.00 0.00 0.00 86 1013.8
20260506194515 61 294 1.7 8.7 0.00 0.00 0.00 86 1013.5
20260506193008 62 300 1.7 8.7 0.00 0.00 0.00 85 1013.7
20260506191506 62 293 1.7 10.4 0.00 0.00 0.00 84 1013.6
20260506190008 62 167 1.7 5.2 0.00 0.00 0.00 82 1013.7
20260506184505 63 257 0.9 9.6 0.00 0.00 0.00 78 1013.5
20260506183005 64 296 0.9 4.3 0.00 0.00 0.00 71 1013.3
20260506181503 64 346 0.0 3.5 0.00 0.00 0.00 64 1013.1
20260506180002 64 292 0.0 3.5 0.00 0.00 0.00 65 1013.0
20260506174501 64 296 1.7 6.1 0.00 0.00 0.00 65 1012.6
20260506173106 64 312 1.7 7.8 0.00 0.00 0.00 66 1012.8
20260506171603 64 261 0.0 3.5 0.00 0.00 0.00 68 1012.9
20260506170105 64 310 0.0 1.7 0.00 0.00 0.00 73 1013.1
20260506164557 64 305 0.0 6.1 0.00 0.00 0.00 78 1013.0
20260506163111 64 251 0.9 3.5 0.00 0.00 0.00 79 1013.1
20260506161601 64 304 0.0 7.8 0.00 0.00 0.00 80 1013.2
20260506160052 64 313 0.0 7.0 0.00 0.00 0.00 80 1013.4
20260506154609 65 251 0.9 5.2 0.00 0.00 0.00 80 1013.4